20050425,000028,896261,31.345832,-123.678256,15.749,33.055,0.132,0.193
20050425,000058,896291,31.346528,-123.676828,15.749,33.054,0.132,0.202
20050425,000129,896322,31.347278,-123.675298,15.750,33.051,0.138,0.201
20050425,000159,896352,31.347972,-123.673801,15.752,33.052,0.132,0.180
20050425,000228,896381,31.348692,-123.672306,15.755,33.046,0.138,0.184
20050425,000258,896411,31.349395,-123.670826,15.757,33.044,0.138,0.194
20050425,000328,896441,31.350105,-123.669330,15.761,33.041,0.132,0.188
20050425,000359,896472,31.350813,-123.667846,15.757,33.044,0.138,0.178
20050425,000429,896502,31.351508,-123.666358,15.753,33.048,0.132,0.184
20050425,000458,896531,31.352223,-123.664870,15.756,33.047,0.138,0.182
20050425,000528,896561,31.352943,-123.663401,15.750,33.052,0.138,0.195
20050425,000558,896591,31.353630,-123.661921,15.750,33.051,0.132,0.202
20050425,000628,896621,31.354335,-123.660453,15.752,33.052,0.132,0.179
20050425,000659,896652,31.355052,-123.658990,15.751,33.050,0.138,0.203
20050425,000729,896682,31.355737,-123.657510,15.750,33.052,0.132,0.182
20050425,000758,896711,31.356443,-123.656046,15.753,33.047,0.138,0.204
20050425,000829,896742,31.357140,-123.654586,15.754,33.047,0.132,0.181
20050425,000858,896771,31.357825,-123.653120,15.751,33.050,0.132,0.184
20050425,000928,896801,31.358543,-123.651650,15.750,33.050,0.132,0.202
20050425,000958,896831,31.359252,-123.650175,15.745,33.053,0.138,0.223
20050425,001028,896861,31.359962,-123.648701,15.741,33.057,0.138,0.196
20050425,001058,896891,31.360675,-123.647211,15.739,33.058,0.144,0.213
20050425,001129,896922,31.361395,-123.645725,15.734,33.062,0.138,0.223
20050425,001158,896951,31.362098,-123.644240,15.728,33.066,0.138,0.200
20050425,001229,896982,31.362812,-123.642763,15.724,33.065,0.138,0.208
20050425,001258,897011,31.363533,-123.641283,15.724,33.063,0.138,0.208
20050425,001328,897041,31.364238,-123.639793,15.727,33.059,0.138,0.198
20050425,001359,897072,31.364947,-123.638320,15.726,33.058,0.132,0.187
20050425,001428,897101,31.365672,-123.636858,15.727,33.055,0.144,0.245
20050425,001458,897131,31.366372,-123.635385,15.731,33.049,0.138,0.213
20050425,001529,897162,31.367095,-123.633928,15.734,33.046,0.138,0.220
20050425,001558,897191,31.367795,-123.632453,15.734,33.044,0.138,0.222
20050425,001628,897221,31.368508,-123.630983,15.735,33.044,0.138,0.208
20050425,001658,897251,31.369220,-123.629518,15.734,33.045,0.132,0.200
20050425,001728,897281,31.369935,-123.628058,15.735,33.046,0.138,0.216
20050425,001759,897312,31.370650,-123.626591,15.736,33.044,0.132,0.217
20050425,001828,897342,31.371373,-123.625133,15.736,33.046,0.144,0.225
20050425,001858,897371,31.372057,-123.623661,15.734,33.046,0.138,0.223
20050425,001928,897401,31.372775,-123.622201,15.734,33.049,0.138,0.219
20050425,001958,897431,31.373483,-123.620736,15.730,33.052,0.138,0.188
20050425,002028,897461,31.374203,-123.619271,15.727,33.053,0.138,0.198
20050425,002058,897491,31.374915,-123.617801,15.722,33.058,0.144,0.219
20050425,002128,897521,31.375630,-123.616325,15.717,33.059,0.138,0.203
20050425,002159,897552,31.376357,-123.614856,15.715,33.059,0.138,0.207
20050425,002229,897582,31.377080,-123.613386,15.709,33.062,0.144,0.194
20050425,002258,897611,31.377800,-123.611905,15.708,33.062,0.138,0.198
20050425,002329,897642,31.378520,-123.610431,15.710,33.058,0.132,0.186
20050425,002358,897671,31.379240,-123.608958,15.714,33.053,0.138,0.189
20050425,002428,897701,31.379958,-123.607480,15.715,33.049,0.138,0.192
20050425,002458,897731,31.380658,-123.606003,15.714,33.052,0.144,0.192
20050425,002528,897761,31.381383,-123.604535,15.710,33.051,0.144,0.202
20050425,002558,897791,31.382097,-123.603076,15.711,33.048,0.138,0.194
20050425,002628,897821,31.382797,-123.601593,15.709,33.048,0.138,0.190
20050425,002658,897851,31.383527,-123.600125,15.711,33.047,0.144,0.202
20050425,002728,897881,31.384255,-123.598655,15.715,33.041,0.138,0.186
20050425,002758,897911,31.384957,-123.597178,15.718,33.037,0.138,0.185
20050425,002828,897941,31.385680,-123.595703,15.714,33.041,0.138,0.186
20050425,002858,897971,31.386413,-123.594220,15.715,33.041,0.138,0.183
20050425,002928,898001,31.387127,-123.592748,15.716,33.040,0.138,0.190
20050425,002958,898031,31.387855,-123.591285,15.716,33.039,0.138,0.180
20050425,003028,898061,31.388568,-123.589791,15.714,33.041,0.138,0.178
20050425,003058,898091,31.389302,-123.588320,15.718,33.038,0.138,0.184
20050425,003128,898121,31.390020,-123.586845,15.720,33.036,0.144,0.193
20050425,003159,898152,31.390742,-123.585381,15.722,33.034,0.138,0.178
20050425,003228,898181,31.391460,-123.583891,15.723,33.034,0.144,0.183
20050425,003259,898212,31.392212,-123.582413,15.724,33.033,0.144,0.183
20050425,003328,898241,31.392927,-123.580931,15.727,33.032,0.138,0.176
20050425,003359,898272,31.393657,-123.579446,15.729,33.031,0.144,0.183
20050425,003429,898302,31.394388,-123.577988,15.729,33.031,0.144,0.183
20050425,003459,898332,31.395098,-123.576513,15.727,33.035,0.144,0.183
20050425,003528,898361,31.395830,-123.575040,15.718,33.043,0.144,0.183
20050425,003558,898391,31.396570,-123.573576,15.720,33.042,0.144,0.183
20050425,003629,898422,31.397312,-123.572105,15.717,33.044,0.144,0.183
20050425,003659,898452,31.398042,-123.570628,15.712,33.047,0.138,0.177
20050425,003728,898481,31.398787,-123.569160,15.720,33.039,0.144,0.183
20050425,003758,898511,31.399522,-123.567673,15.711,33.047,0.144,0.187
20050425,003828,898541,31.400255,-123.566185,15.712,33.044,0.144,0.183
20050425,003859,898572,31.400997,-123.564701,15.714,33.040,0.144,0.183
20050425,003929,898603,31.401742,-123.563216,15.712,33.040,0.144,0.183
20050425,003958,898631,31.402445,-123.561711,15.714,33.040,0.144,0.183
20050425,004028,898661,31.403188,-123.560228,15.714,33.038,0.144,0.183
20050425,004058,898692,31.403917,-123.558721,15.720,33.035,0.144,0.183
20050425,004128,898721,31.404658,-123.557235,15.724,33.030,0.144,0.183
20050425,004158,898751,31.405407,-123.555750,15.726,33.030,0.144,0.183
20050425,004229,898782,31.406145,-123.554241,15.724,33.031,0.144,0.183
20050425,004258,898811,31.406892,-123.552741,15.724,33.033,0.144,0.183
20050425,004328,898841,31.407622,-123.551248,15.716,33.039,0.144,0.183
20050425,004358,898871,31.408353,-123.549753,15.716,33.040,0.138,0.176
20050425,004429,898902,31.409092,-123.548261,15.704,33.049,0.144,0.183
20050425,004458,898931,31.409818,-123.546763,15.707,33.047,0.144,0.183
20050425,004528,898961,31.410555,-123.545270,15.701,33.051,0.138,0.176
20050425,004558,898991,31.411285,-123.543788,15.701,33.050,0.150,0.189
20050425,004628,899021,31.412005,-123.542280,15.701,33.049,0.150,0.189
20050425,004659,899052,31.412755,-123.540796,15.705,33.044,0.144,0.183
20050425,004729,899082,31.413423,-123.539318,15.704,33.043,0.150,0.189
20050425,004759,899112,31.414155,-123.537835,15.706,33.042,0.144,0.182
20050425,004828,899141,31.414873,-123.536330,15.705,33.041,0.150,0.189
20050425,004858,899171,31.415605,-123.534848,15.707,33.041,0.144,0.182
20050425,004928,899201,31.416350,-123.533366,15.703,33.044,0.150,0.189
20050425,004959,899232,31.417053,-123.531893,15.698,33.047,0.150,0.189
20050425,005028,899261,31.417778,-123.530421,15.698,33.049,0.150,0.190
20050425,005058,899291,31.418481,-123.528948,15.702,33.044,0.150,0.189
20050425,005128,899321,31.419206,-123.527470,15.702,33.044,0.150,0.189
20050425,005159,899352,31.419956,-123.525951,15.704,33.041,0.144,0.182
20050425,005228,899381,31.420656,-123.524516,15.711,33.037,0.144,0.183
20050425,005258,899411,31.421368,-123.523035,15.710,33.037,0.150,0.189
20050425,005329,899442,31.422093,-123.521506,15.714,33.035,0.150,0.189
20050425,005358,899471,31.422796,-123.520091,15.716,33.035,0.144,0.183
20050425,005428,899501,31.423528,-123.518606,15.716,33.036,0.150,0.189
20050425,005459,899532,31.424255,-123.517128,15.722,33.033,0.150,0.189
20050425,005528,899561,31.424980,-123.515668,15.724,33.034,0.150,0.189
20050425,005558,899591,31.425696,-123.514196,15.729,33.031,0.156,0.196
20050425,005628,899621,31.426416,-123.512713,15.734,33.031,0.144,0.183
20050425,005658,899651,31.427138,-123.511256,15.738,33.027,0.150,0.189
20050425,005728,899681,31.427865,-123.509780,15.743,33.027,0.150,0.189
20050425,005759,899712,31.428580,-123.508290,15.745,33.030,0.150,0.189
20050425,005828,899741,31.429296,-123.506813,15.745,33.032,0.150,0.189
20050425,005858,899771,31.430013,-123.505326,15.749,33.032,0.156,0.196
20050425,005928,899801,31.430735,-123.503850,15.747,33.038,0.144,0.182
20050425,005959,899832,31.431496,-123.502341,15.753,33.033,0.144,0.182
20050425,010029,899862,31.432171,-123.500913,15.746,33.046,0.150,0.191
20050425,010100,899893,31.432920,-123.499400,15.749,33.043,0.150,0.190
20050425,010130,899923,31.433641,-123.497936,15.743,33.047,0.150,0.189
20050425,010159,899953,31.434333,-123.496490,15.743,33.049,0.144,0.182
20050425,010230,899983,31.435075,-123.494986,15.742,33.051,0.150,0.189
20050425,010301,900014,31.435806,-123.493521,15.742,33.051,0.150,0.195
20050425,010330,900043,31.436526,-123.492065,15.743,33.051,0.150,0.189
20050425,010400,900073,31.437233,-123.490575,15.743,33.051,0.150,0.189
20050425,010430,900103,31.437945,-123.489121,15.741,33.052,0.150,0.189
20050425,010500,900133,31.438671,-123.487656,15.741,33.053,0.150,0.189
20050425,010530,900163,31.439386,-123.486205,15.742,33.052,0.150,0.189
20050425,010600,900193,31.440101,-123.484733,15.739,33.056,0.144,0.182
20050425,010630,900223,31.440821,-123.483268,15.737,33.060,0.150,0.204
20050425,010700,900253,31.441538,-123.481785,15.736,33.057,0.156,0.199
20050425,010730,900283,31.442260,-123.480291,15.734,33.059,0.150,0.189
20050425,010800,900313,31.442988,-123.478811,15.725,33.066,0.150,0.189
20050425,010830,900343,31.443723,-123.477345,15.722,33.067,0.150,0.189
20050425,010901,900374,31.444445,-123.475865,15.720,33.067,0.156,0.204
20050425,010930,900403,31.445180,-123.474390,15.722,33.064,0.150,0.197
20050425,011001,900434,31.445903,-123.472911,15.718,33.064,0.144,0.190
20050425,011030,900463,31.446620,-123.471430,15.718,33.061,0.144,0.197
20050425,011100,900493,31.447336,-123.469950,15.717,33.060,0.150,0.198
20050425,011130,900523,31.448073,-123.468490,15.714,33.063,0.156,0.214
20050425,011200,900553,31.448791,-123.467003,15.710,33.061,0.156,0.205
20050425,011230,900583,31.449500,-123.465526,15.712,33.058,0.150,0.197
20050425,011300,900613,31.450236,-123.464048,15.709,33.059,0.156,0.212
20050425,011330,900643,31.450956,-123.462573,15.711,33.055,0.150,0.209
20050425,011400,900673,31.451670,-123.461081,15.706,33.057,0.150,0.197
20050425,011430,900703,31.452400,-123.459606,15.707,33.056,0.150,0.213
20050425,011500,900733,31.453125,-123.458143,15.703,33.056,0.150,0.208
20050425,011530,900763,31.453861,-123.456670,15.700,33.058,0.150,0.213
20050425,011600,900793,31.454595,-123.455188,15.694,33.061,0.150,0.212
20050425,011630,900823,31.455315,-123.453703,15.691,33.059,0.156,0.222
20050425,011700,900853,31.456041,-123.452243,15.690,33.058,0.156,0.216
20050425,011730,900883,31.456766,-123.450766,15.685,33.059,0.156,0.220
20050425,011800,900913,31.457490,-123.449291,15.684,33.058,0.156,0.225
20050425,011830,900943,31.458215,-123.447838,15.681,33.056,0.162,0.236
20050425,011900,900973,31.458953,-123.446368,15.675,33.058,0.156,0.229
20050425,011930,901003,31.459688,-123.444908,15.666,33.062,0.156,0.233
20050425,012000,901033,31.460388,-123.443445,15.672,33.054,0.156,0.229
20050425,012031,901064,31.461121,-123.441988,15.666,33.055,0.156,0.221
20050425,012100,901093,31.461845,-123.440520,15.664,33.056,0.156,0.222
20050425,012130,901123,31.462563,-123.439061,15.662,33.054,0.156,0.231
20050425,012200,901153,31.463275,-123.437603,15.659,33.056,0.156,0.236
20050425,012230,901183,31.463976,-123.436160,15.659,33.053,0.162,0.237
20050425,012300,901214,31.464693,-123.434706,15.659,33.053,0.156,0.219
20050425,012331,901244,31.465430,-123.433246,15.655,33.049,0.156,0.233
20050425,012400,901273,31.466150,-123.431785,15.656,33.048,0.156,0.235
20050425,012430,901303,31.466893,-123.430351,15.647,33.052,0.162,0.251
20050425,012500,901333,31.467588,-123.428885,15.640,33.058,0.162,0.245
20050425,012530,901363,31.468310,-123.427443,15.632,33.058,0.156,0.247
20050425,012600,901393,31.469043,-123.426008,15.628,33.057,0.156,0.230
20050425,012630,901423,31.469756,-123.424558,15.623,33.059,0.156,0.247
20050425,012700,901453,31.470493,-123.423108,15.615,33.062,0.156,0.246
20050425,012730,901483,31.471215,-123.421660,15.618,33.058,0.162,0.254
20050425,012800,901513,31.471946,-123.420208,15.612,33.057,0.156,0.245
20050425,012830,901543,31.472675,-123.418751,15.617,33.049,0.162,0.244
20050425,012900,901573,31.473378,-123.417310,15.614,33.046,0.162,0.253
20050425,012930,901603,31.474103,-123.415870,15.616,33.043,0.162,0.250
20050425,013000,901633,31.474813,-123.414440,15.617,33.038,0.156,0.243
20050425,013030,901663,31.475543,-123.413002,15.618,33.038,0.162,0.253
20050425,013100,901693,31.476265,-123.411572,15.618,33.035,0.162,0.250
20050425,013130,901723,31.476975,-123.410140,15.624,33.031,0.156,0.230
20050425,013200,901753,31.477700,-123.408703,15.629,33.025,0.156,0.242
20050425,013230,901783,31.478431,-123.407267,15.635,33.020,0.162,0.250
20050425,013300,901813,31.479165,-123.405813,15.646,33.011,0.156,0.233
20050425,013330,901843,31.479868,-123.404343,15.654,33.007,0.162,0.227
20050425,013400,901873,31.480623,-123.402927,15.663,33.004,0.162,0.233
20050425,013430,901903,31.481345,-123.401498,15.666,33.004,0.156,0.239
20050425,013500,901933,31.482075,-123.400058,15.661,33.011,0.156,0.238
20050425,013530,901963,31.482803,-123.398610,15.660,33.016,0.162,0.244
20050425,013600,901993,31.483545,-123.397168,15.655,33.024,0.162,0.247
20050425,013630,902023,31.484271,-123.395723,15.652,33.028,0.162,0.241
20050425,013700,902053,31.485006,-123.394282,15.653,33.029,0.162,0.246
20050425,013730,902083,31.485751,-123.392852,15.648,33.033,0.162,0.240
20050425,013800,902113,31.486488,-123.391415,15.648,33.035,0.162,0.239
20050425,013830,902143,31.487223,-123.389973,15.647,33.035,0.162,0.231
20050425,013900,902173,31.487965,-123.388525,15.647,33.034,0.162,0.245
20050425,013931,902204,31.488698,-123.387083,15.646,33.036,0.162,0.240
20050425,014001,902234,31.489436,-123.385652,15.646,33.035,0.168,0.251
20050425,014030,902263,31.490191,-123.384217,15.645,33.036,0.162,0.237
20050425,014101,902294,31.490935,-123.382772,15.642,33.038,0.162,0.233
20050425,014130,902323,31.491678,-123.381335,15.642,33.039,0.162,0.236
20050425,014200,902353,31.492438,-123.379907,15.642,33.038,0.168,0.241
20050425,014230,902383,31.493153,-123.378455,15.641,33.039,0.162,0.237
20050425,014300,902413,31.493900,-123.377033,15.642,33.036,0.168,0.246
20050425,014331,902444,31.494663,-123.375605,15.642,33.036,0.168,0.241
20050425,014400,902473,31.495408,-123.374158,15.645,33.035,0.162,0.236
20050425,014430,902503,31.496160,-123.372712,15.648,33.033,0.162,0.236
20050425,014500,902533,31.496915,-123.371285,15.649,33.033,0.168,0.238
20050425,014530,902564,31.497671,-123.369853,15.653,33.030,0.168,0.239
20050425,014600,902593,31.498418,-123.368430,15.656,33.028,0.168,0.232
20050425,014630,902623,31.499166,-123.367007,15.659,33.028,0.168,0.237
20050425,014700,902653,31.499913,-123.365573,15.663,33.026,0.162,0.227
20050425,014730,902683,31.500665,-123.364150,15.665,33.026,0.162,0.233
20050425,014800,902713,31.501410,-123.362705,15.665,33.029,0.168,0.244
20050425,014830,902743,31.502175,-123.361272,15.666,33.029,0.168,0.244
20050425,014900,902773,31.502915,-123.359833,15.667,33.034,0.174,0.247
20050425,014930,902803,31.503635,-123.358388,15.659,33.039,0.174,0.253
20050425,015001,902834,31.504403,-123.356982,15.658,33.037,0.168,0.238
20050425,015030,902863,31.505151,-123.355555,15.656,33.042,0.168,0.244
20050425,015100,902893,31.505908,-123.354115,15.654,33.044,0.168,0.243
20050425,015130,902923,31.506645,-123.352670,15.654,33.045,0.168,0.235
20050425,015200,902953,31.507396,-123.351247,15.654,33.042,0.168,0.236
20050425,015230,902983,31.508150,-123.349813,15.655,33.041,0.168,0.236
20050425,015300,903013,31.508913,-123.348378,15.654,33.042,0.162,0.232
20050425,015331,903044,31.509656,-123.346943,15.652,33.043,0.162,0.223
20050425,015400,903073,31.510413,-123.345507,15.652,33.043,0.168,0.224
20050425,015430,903103,31.511140,-123.344077,15.648,33.046,0.162,0.229
20050425,015500,903133,31.511868,-123.342642,15.649,33.043,0.162,0.231
20050425,015530,903163,31.512605,-123.341213,15.651,33.045,0.168,0.233
20050425,015600,903193,31.513335,-123.339783,15.648,33.044,0.168,0.238
20050425,015630,903223,31.514093,-123.338355,15.647,33.041,0.162,0.229
20050425,015700,903253,31.514840,-123.336915,15.649,33.040,0.168,0.238
20050425,015730,903283,31.515596,-123.335477,15.651,33.039,0.168,0.232
20050425,015800,903313,31.516340,-123.334053,15.650,33.040,0.168,0.231
20050425,015830,903343,31.517078,-123.332612,15.653,33.040,0.162,0.226
20050425,015900,903373,31.517836,-123.331178,15.652,33.036,0.162,0.228
20050425,015931,903404,31.518598,-123.329737,15.649,33.043,0.168,0.230
20050425,020000,903433,31.519350,-123.328310,15.649,33.040,0.162,0.222
20050425,020030,903463,31.520088,-123.326887,15.647,33.041,0.168,0.225
20050425,020100,903493,31.520838,-123.325453,15.645,33.043,0.168,0.226
20050425,020130,903523,31.521585,-123.324033,15.645,33.040,0.168,0.232
20050425,020200,903553,31.522338,-123.322600,15.648,33.038,0.162,0.225
20050425,020231,903584,31.523140,-123.321210,15.645,33.041,0.162,0.225
20050425,020300,903613,31.523935,-123.319810,15.646,33.042,0.162,0.225
20050425,020330,903643,31.524726,-123.318403,15.645,33.039,0.168,0.231
20050425,020401,903674,31.525513,-123.317002,15.647,33.037,0.168,0.231
20050425,020430,903703,31.526308,-123.315593,15.647,33.037,0.162,0.223
20050425,020500,903733,31.527106,-123.314202,15.649,33.036,0.168,0.230
20050425,020530,903763,31.527881,-123.312803,15.651,33.037,0.162,0.222
20050425,020600,903793,31.528691,-123.311405,15.652,33.035,0.168,0.229
20050425,020630,903823,31.529491,-123.310015,15.654,33.037,0.162,0.221
20050425,020700,903853,31.530291,-123.308600,15.651,33.036,0.162,0.220
20050425,020731,903884,31.531078,-123.307202,15.654,33.036,0.162,0.219
20050425,020800,903914,31.531873,-123.305800,15.656,33.034,0.162,0.219
20050425,020830,903943,31.532663,-123.304410,15.656,33.034,0.156,0.211
20050425,020900,903973,31.533440,-123.303013,15.660,33.033,0.168,0.225
20050425,020930,904003,31.534256,-123.301633,15.661,33.031,0.162,0.217
20050425,021000,904033,31.535040,-123.300230,15.663,33.037,0.156,0.209
20050425,021030,904063,31.535831,-123.298842,15.665,33.031,0.156,0.209
20050425,021100,904093,31.536620,-123.297443,15.665,33.033,0.162,0.216
20050425,021130,904123,31.537416,-123.296040,15.667,33.032,0.162,0.215
20050425,021200,904153,31.538210,-123.294642,15.668,33.033,0.162,0.214
20050425,021230,904183,31.538986,-123.293230,15.670,33.032,0.162,0.214
20050425,021300,904213,31.539785,-123.291842,15.668,33.039,0.156,0.206
20050425,021330,904243,31.540575,-123.290438,15.666,33.039,0.162,0.213
20050425,021401,904274,31.541365,-123.289038,15.668,33.037,0.162,0.212
20050425,021430,904303,31.542160,-123.287642,15.668,33.040,0.168,0.219
20050425,021500,904333,31.542941,-123.286233,15.672,33.037,0.162,0.210
20050425,021530,904363,31.543735,-123.284828,15.670,33.038,0.162,0.211
20050425,021600,904393,31.544528,-123.283420,15.673,33.036,0.162,0.210
20050425,021630,904423,31.545311,-123.282017,15.673,33.035,0.162,0.209
20050425,021700,904453,31.546103,-123.280615,15.675,33.037,0.162,0.209
20050425,021731,904484,31.546936,-123.279158,15.677,33.036,0.162,0.208
20050425,021800,904513,31.547725,-123.277800,15.681,33.033,0.168,0.215
20050425,021830,904543,31.548530,-123.276370,15.682,33.036,0.162,0.207
20050425,021901,904574,31.549376,-123.274902,15.683,33.035,0.162,0.207
20050425,021930,904603,31.550131,-123.273518,15.686,33.037,0.162,0.205
20050425,022000,904633,31.550928,-123.272097,15.686,33.037,0.156,0.198
20050425,022030,904663,31.551735,-123.270698,15.683,33.039,0.162,0.204
20050425,022100,904693,31.552526,-123.269283,15.678,33.047,0.162,0.204
20050425,022131,904724,31.553325,-123.267860,15.677,33.047,0.162,0.203
20050425,022201,904754,31.554143,-123.266375,15.673,33.050,0.162,0.203
20050425,022231,904784,31.554961,-123.264948,15.678,33.045,0.156,0.196
20050425,022300,904813,31.555736,-123.263560,15.673,33.049,0.162,0.202
20050425,022331,904844,31.556560,-123.262135,15.672,33.051,0.162,0.201
20050425,022400,904873,31.557370,-123.260698,15.669,33.053,0.162,0.200
20050425,022431,904904,31.558213,-123.259233,15.668,33.052,0.162,0.198
20050425,022500,904933,31.558983,-123.257857,15.668,33.060,0.162,0.198
20050425,022530,904963,31.559781,-123.256433,15.664,33.052,0.162,0.199
20050425,022600,904993,31.560601,-123.255008,15.655,33.061,0.162,0.198
20050425,022630,905023,31.561398,-123.253573,15.652,33.061,0.162,0.198
20050425,022700,905053,31.562231,-123.252160,15.645,33.065,0.162,0.197
20050425,022730,905083,31.563036,-123.250730,15.645,33.064,0.168,0.203
20050425,022801,905114,31.563840,-123.249295,15.642,33.065,0.156,0.190
20050425,022831,905144,31.564690,-123.247837,15.642,33.061,0.162,0.195
20050425,022901,905175,31.565490,-123.246403,15.640,33.060,0.162,0.195
20050425,022930,905203,31.566281,-123.245025,15.641,33.058,0.162,0.195
20050425,023001,905234,31.567133,-123.243563,15.645,33.052,0.162,0.194
20050425,023030,905264,31.567903,-123.242177,15.644,33.052,0.162,0.194
20050425,023101,905294,31.568740,-123.240713,15.647,33.048,0.162,0.192
20050425,023130,905323,31.569545,-123.239355,15.650,33.044,0.156,0.186
20050425,023201,905354,31.570381,-123.237882,15.657,33.039,0.156,0.186
20050425,023231,905384,31.571193,-123.236438,15.657,33.039,0.168,0.199
20050425,023300,905413,31.571983,-123.235057,15.661,33.037,0.162,0.192
20050425,023331,905444,31.572846,-123.233585,15.660,33.039,0.162,0.191
20050425,023401,905474,31.573670,-123.232157,15.661,33.040,0.162,0.191
20050425,023432,905505,31.574490,-123.230727,15.664,33.038,0.162,0.190
20050425,023501,905534,31.575288,-123.229313,15.666,33.040,0.162,0.190
20050425,023531,905564,31.576110,-123.227905,15.666,33.040,0.162,0.189
20050425,023602,905595,31.576931,-123.226493,15.666,33.042,0.162,0.189
20050425,023631,905624,31.577745,-123.225073,15.664,33.044,0.162,0.189
20050425,023701,905654,31.578546,-123.223645,15.661,33.045,0.156,0.182
20050425,023731,905684,31.579361,-123.222235,15.665,33.044,0.162,0.188
20050425,023801,905714,31.580185,-123.220845,15.666,33.044,0.162,0.188
20050425,023832,905745,31.581003,-123.219423,15.662,33.048,0.162,0.188
20050425,023902,905775,31.581826,-123.218023,15.664,33.045,0.162,0.187
20050425,023932,905805,31.582636,-123.216607,15.663,33.049,0.162,0.187
20050425,024001,905834,31.583471,-123.215202,15.667,33.042,0.162,0.187
20050425,024031,905864,31.584290,-123.213783,15.667,33.043,0.162,0.187
20050425,024101,905894,31.585126,-123.212380,15.662,33.048,0.156,0.180
20050425,024131,905924,31.585931,-123.210967,15.661,33.053,0.156,0.180
20050425,024201,905954,31.586748,-123.209563,15.664,33.047,0.162,0.186
20050425,024231,905984,31.587583,-123.208147,15.655,33.052,0.156,0.180
20050425,024301,906014,31.588401,-123.206727,15.654,33.054,0.162,0.186
20050425,024332,906045,31.589216,-123.205310,15.652,33.053,0.162,0.186
20050425,024401,906074,31.590038,-123.203887,15.648,33.056,0.156,0.179
20050425,024431,906104,31.590836,-123.202462,15.646,33.056,0.156,0.179
20050425,024501,906134,31.591580,-123.201008,15.641,33.065,0.156,0.179
20050425,024531,906164,31.592346,-123.199578,15.640,33.057,0.156,0.179
20050425,024601,906194,31.593106,-123.198130,15.634,33.059,0.156,0.179
20050425,024631,906224,31.593880,-123.196683,15.637,33.057,0.162,0.185